Location: Pordenone
(45.9640°N, 12.6580°E)
Time: 01:27:35
(UTC+02:00)

ISS - Pass Details

Date: 18 May 2021
Orbit: 417 x 422 km, 51.6° (Epoch: 14 June)

Event Time Altitude Azimuth Distance (km) Brightness Sun altitude
Rises 21:15:37 0° 236° (SW) 2,353 0.3 -6.2°
Reaches altitude 10° 21:17:42 10° 235° (SW) 1,493 -0.7 -6.5°
Maximum altitude 21:21:02 75° 150° (SSE) 438 -3.8 -7.0°
Drops below altitude 10° 21:24:25 10° 64° (ENE) 1,503 -1.2 -7.4°
Sets 21:26:31 0° 63° (ENE) 2,371 -0.2 -7.7°
